Simultaneous Nadir Overpasses (SNOs) Predictions

Prediction of SNOs between GOES-17 and METOP-B Satellite Orbit:

Table of predicted SNOs for the next 14.0 days since TLE Epoch: 2/5/2022
Index Date Time (GOES-17) GOES-17 Lat,Lon METOP-B Lat,Lon Distance(km) Time Diff (sec)
1 02/05/2022 06:51:09 -0.02,-137.19 -0.61,-139.73 290.08 80
2 02/06/2022 06:27:50 -0.02,-137.19 0.50,-134.74 278.78 80
3 02/07/2022 18:49:21 0.02,-137.19 0.51,-139.30 240.81 80
4 02/08/2022 18:26:02 0.01,-137.19 -0.60,-134.31 327.65 80
5 02/10/2022 06:47:42 -0.01,-137.17 -0.43,-138.91 198.20 80
6 02/11/2022 06:24:23 -0.01,-137.16 0.69,-133.91 369.85 80
7 02/12/2022 18:43:14 0.02,-137.15 0.32,-138.48 151.13 80
8 02/13/2022 18:25:15 0.01,-137.14 -0.80,-133.48 416.30 80
9 02/15/2022 06:41:35 -0.00,-137.11 -0.22,-138.08 110.77 80
10 02/16/2022 06:23:35 -0.00,-137.10 0.90,-133.09 456.62 80
11 02/17/2022 18:39:47 0.00,-137.08 0.11,-137.65 65.43 80
